"Time","Value","Approval","myLocation"
"2023-06-08 22:00",4.971,"Approved","OW306"
"2023-06-08 23:00",4.974,"Approved","OW306"
"2023-06-09 00:00",4.973,"Approved","OW306"
"2023-06-09 01:00",4.976,"Approved","OW306"
"2023-06-09 02:00",4.978,"Approved","OW306"
"2023-06-09 03:00",4.978,"Approved","OW306"
"2023-06-09 04:00",4.984,"Approved","OW306"
"2023-06-09 05:00",4.978,"Approved","OW306"
"2023-06-09 06:00",4.98,"Approved","OW306"
"2023-06-09 07:00",4.982,"Approved","OW306"
"2023-06-09 08:00",4.986,"Approved","OW306"
"2023-06-09 09:00",4.984,"Approved","OW306"
"2023-06-09 10:00",4.982,"Approved","OW306"
"2023-06-09 11:00",4.987,"Approved","OW306"
"2023-06-09 12:00",4.99,"Approved","OW306"
"2023-06-09 13:00",4.991,"Approved","OW306"
"2023-06-09 14:00",4.991,"Approved","OW306"
"2023-06-09 15:00",4.99,"Approved","OW306"
"2023-06-09 16:00",4.991,"Approved","OW306"
"2023-06-09 17:00",4.99,"Approved","OW306"
"2023-06-09 18:00",4.99,"Approved","OW306"
"2023-06-09 19:00",4.99100135023629,"Approved","OW306"
"2023-06-09 20:00",4.99100270047258,"Approved","OW306"
"2023-06-09 21:00",4.99300405070887,"Approved","OW306"
"2023-06-09 22:00",4.99300540094517,"Approved","OW306"
"2023-06-09 23:00",4.99400675118146,"Approved","OW306"
"2023-06-10 00:00",4.99400810141775,"Approved","OW306"
"2023-06-10 01:00",4.99500945165404,"Approved","OW306"
"2023-06-10 02:00",4.99801080189033,"Approved","OW306"
"2023-06-10 03:00",4.99801215212662,"Approved","OW306"
"2023-06-10 04:00",4.99701350236291,"Approved","OW306"
"2023-06-10 05:00",4.9980148525992,"Approved","OW306"
"2023-06-10 06:00",5.0010162028355,"Approved","OW306"
"2023-06-10 07:00",5.00201755307179,"Approved","OW306"
"2023-06-10 08:00",5.00301890330808,"Approved","OW306"
"2023-06-10 09:00",5.00202025354437,"Approved","OW306"
"2023-06-10 10:00",5.00202160378066,"Approved","OW306"
"2023-06-10 11:00",5.00502295401695,"Approved","OW306"
"2023-06-10 12:00",5.00602430425324,"Approved","OW306"
"2023-06-10 13:00",5.00602565448954,"Approved","OW306"
"2023-06-10 14:00",5.00802700472583,"Approved","OW306"
"2023-06-10 15:00",5.00902835496212,"Approved","OW306"
"2023-06-10 16:00",5.00602970519841,"Approved","OW306"
"2023-06-10 17:00",5.0060310554347,"Approved","OW306"
"2023-06-10 18:00",5.00803240567099,"Approved","OW306"
"2023-06-10 19:00",5.00703375590728,"Approved","OW306"
"2023-06-10 20:00",5.00703510614357,"Approved","OW306"
"2023-06-10 21:00",5.00803645637987,"Approved","OW306"
"2023-06-10 22:00",5.00803780661616,"Approved","OW306"
"2023-06-10 23:00",5.00903915685245,"Approved","OW306"
"2023-06-11 00:00",5.01004050708874,"Approved","OW306"
"2023-06-11 01:00",5.00904185732503,"Approved","OW306"
"2023-06-11 02:00",5.01104320756132,"Approved","OW306"
"2023-06-11 03:00",5.01004455779761,"Approved","OW306"
"2023-06-11 04:00",5.01104590803391,"Approved","OW306"
"2023-06-11 05:00",5.0110472582702,"Approved","OW306"
"2023-06-11 06:00",5.01104860850649,"Approved","OW306"
"2023-06-11 07:00",5.01204995874278,"Approved","OW306"
"2023-06-11 08:00",5.01305130897907,"Approved","OW306"
"2023-06-11 09:00",5.01305265921536,"Approved","OW306"
"2023-06-11 10:00",5.01205400945165,"Approved","OW306"
"2023-06-11 11:00",5.01705535968795,"Approved","OW306"
"2023-06-11 12:00",5.01905670992424,"Approved","OW306"
"2023-06-11 13:00",5.01905806016053,"Approved","OW306"
"2023-06-11 14:00",5.02105941039682,"Approved","OW306"
"2023-06-11 15:00",5.02406076063311,"Approved","OW306"
"2023-06-11 16:00",5.0200621108694,"Approved","OW306"
"2023-06-11 17:00",5.01906346110569,"Approved","OW306"
"2023-06-11 18:00",5.02006481134198,"Approved","OW306"
"2023-06-11 19:00",5.02106616157828,"Approved","OW306"
"2023-06-11 20:00",5.02206751181457,"Approved","OW306"
"2023-06-11 21:00",5.02006886205086,"Approved","OW306"
"2023-06-11 22:00",5.02007021228715,"Approved","OW306"
"2023-06-11 23:00",5.02007156252344,"Approved","OW306"
"2023-06-12 00:00",5.02107291275973,"Approved","OW306"
"2023-06-12 01:00",5.02307426299602,"Approved","OW306"
"2023-06-12 02:00",5.02307561323232,"Approved","OW306"
"2023-06-12 03:00",5.02407696346861,"Approved","OW306"
"2023-06-12 04:00",5.0220783137049,"Approved","OW306"
"2023-06-12 05:00",5.02407966394119,"Approved","OW306"
"2023-06-12 06:00",5.02508101417748,"Approved","OW306"
"2023-06-12 07:00",5.02508236441377,"Approved","OW306"
"2023-06-12 08:00",5.03008371465006,"Approved","OW306"
"2023-06-12 09:00",5.02608506488636,"Approved","OW306"
"2023-06-12 10:00",5.02608641512265,"Approved","OW306"
"2023-06-12 11:00",5.03108776535894,"Approved","OW306"
"2023-06-12 12:00",5.03208911559523,"Approved","OW306"
"2023-06-12 13:00",5.03309046583152,"Approved","OW306"
"2023-06-12 14:00",5.03409181606781,"Approved","OW306"
"2023-06-12 15:00",5.0340931663041,"Approved","OW306"
"2023-06-12 16:00",5.03209451654039,"Approved","OW306"
"2023-06-12 17:00",5.03109586677669,"Approved","OW306"
"2023-06-12 18:00",5.03309721701298,"Approved","OW306"
"2023-06-12 19:00",5.03409856724927,"Approved","OW306"
"2023-06-12 20:00",5.03209991748556,"Approved","OW306"
"2023-06-12 21:00",5.03510126772185,"Approved","OW306"
"2023-06-12 22:00",5.03310261795814,"Approved","OW306"
"2023-06-12 23:00",5.03310396819443,"Approved","OW306"
"2023-06-13 00:00",5.03410531843073,"Approved","OW306"
"2023-06-13 01:00",5.03410666866702,"Approved","OW306"
"2023-06-13 02:00",5.03510801890331,"Approved","OW306"
"2023-06-13 03:00",5.0381093691396,"Approved","OW306"
"2023-06-13 04:00",5.03711071937589,"Approved","OW306"
"2023-06-13 05:00",5.03711206961218,"Approved","OW306"
"2023-06-13 06:00",5.03711341984847,"Approved","OW306"
"2023-06-13 07:00",5.03811477008477,"Approved","OW306"
"2023-06-13 08:00",5.04111612032106,"Approved","OW306"
"2023-06-13 09:00",5.03811747055735,"Approved","OW306"
"2023-06-13 10:00",5.03811882079364,"Approved","OW306"
"2023-06-13 11:00",5.04212017102993,"Approved","OW306"
"2023-06-13 12:00",5.04412152126622,"Approved","OW306"
"2023-06-13 13:00",5.04412287150251,"Approved","OW306"
"2023-06-13 14:00",5.0461242217388,"Approved","OW306"
"2023-06-13 15:00",5.0431255719751,"Approved","OW306"
"2023-06-13 16:00",5.04412692221139,"Approved","OW306"
"2023-06-13 17:00",5.04412827244768,"Approved","OW306"
"2023-06-13 18:00",5.04512962268397,"Approved","OW306"
"2023-06-13 19:00",5.04213097292026,"Approved","OW306"
"2023-06-13 20:00",5.04213232315655,"Approved","OW306"
"2023-06-13 21:00",5.04313367339284,"Approved","OW306"
"2023-06-13 22:00",5.04313502362914,"Approved","OW306"
"2023-06-13 23:00",5.04413637386543,"Approved","OW306"
"2023-06-14 00:00",5.04713772410172,"Approved","OW306"
"2023-06-14 01:00",5.04813907433801,"Approved","OW306"
"2023-06-14 02:00",5.0481404245743,"Approved","OW306"
"2023-06-14 03:00",5.04814177481059,"Approved","OW306"
"2023-06-14 04:00",5.05014312504688,"Approved","OW306"
"2023-06-14 05:00",5.05114447528317,"Approved","OW306"
"2023-06-14 06:00",5.05014582551947,"Approved","OW306"
"2023-06-14 07:00",5.05014717575576,"Approved","OW306"
"2023-06-14 08:00",5.05614852599205,"Approved","OW306"
"2023-06-14 09:00",5.05114987622834,"Approved","OW306"
"2023-06-14 10:00",5.05115122646463,"Approved","OW306"
"2023-06-14 11:00",5.05515257670092,"Approved","OW306"
"2023-06-14 12:00",5.05715392693721,"Approved","OW306"
"2023-06-14 13:00",5.05715527717351,"Approved","OW306"
"2023-06-14 14:00",5.0571566274098,"Approved","OW306"
"2023-06-14 15:00",5.05615797764609,"Approved","OW306"
"2023-06-14 16:00",5.05415932788238,"Approved","OW306"
"2023-06-14 17:00",5.05316067811867,"Approved","OW306"
"2023-06-14 18:00",5.05516202835496,"Approved","OW306"
"2023-06-14 19:00",5.05416337859125,"Approved","OW306"
"2023-06-14 20:00",5.05316472882754,"Approved","OW306"
"2023-06-14 21:00",5.05216607906384,"Approved","OW306"
"2023-06-14 22:00",5.05416742930013,"Approved","OW306"
"2023-06-14 23:00",5.05416877953642,"Approved","OW306"
"2023-06-15 00:00",5.05517012977271,"Approved","OW306"
"2023-06-15 01:00",5.055171480009,"Approved","OW306"
"2023-06-15 02:00",5.05517283024529,"Approved","OW306"
"2023-06-15 03:00",5.05517418048158,"Approved","OW306"
"2023-06-15 04:00",5.05417553071788,"Approved","OW306"
"2023-06-15 05:00",5.05617688095417,"Approved","OW306"
"2023-06-15 06:00",5.05717823119046,"Approved","OW306"
"2023-06-15 07:00",5.05617958142675,"Approved","OW306"
"2023-06-15 08:00",5.06218093166304,"Approved","OW306"
"2023-06-15 09:00",5.05718228189933,"Approved","OW306"
"2023-06-15 10:00",5.05718363213562,"Approved","OW306"
"2023-06-15 11:00",5.06218498237192,"Approved","OW306"
"2023-06-15 12:00",5.06818633260821,"Approved","OW306"
"2023-06-15 13:00",5.0641876828445,"Approved","OW306"
"2023-06-15 14:00",5.06418903308079,"Approved","OW306"
"2023-06-15 15:00",5.06419038331708,"Approved","OW306"
"2023-06-15 16:00",5.06319173355337,"Approved","OW306"
"2023-06-15 17:00",5.06219308378966,"Approved","OW306"
"2023-06-15 18:00",5.06219443402595,"Approved","OW306"
"2023-06-15 19:00",5.06519578426225,"Approved","OW306"
"2023-06-15 20:00",5.06519713449854,"Approved","OW306"
"2023-06-15 21:00",5.06319848473483,"Approved","OW306"
"2023-06-15 22:00",5.06619983497112,"Approved","OW306"
"2023-06-15 23:00",5.06520118520741,"Approved","OW306"
"2023-06-16 00:00",5.0642025354437,"Approved","OW306"
"2023-06-16 01:00",5.06420388567999,"Approved","OW306"
"2023-06-16 02:00",5.06420523591629,"Approved","OW306"
"2023-06-16 03:00",5.06420658615258,"Approved","OW306"
"2023-06-16 04:00",5.06620793638887,"Approved","OW306"
"2023-06-16 05:00",5.06620928662516,"Approved","OW306"
"2023-06-16 06:00",5.06821063686145,"Approved","OW306"
"2023-06-16 07:00",5.06721198709774,"Approved","OW306"
"2023-06-16 08:00",5.07321333733403,"Approved","OW306"
"2023-06-16 09:00",5.06821468757032,"Approved","OW306"
"2023-06-16 10:00",5.06721603780662,"Approved","OW306"
"2023-06-16 11:00",5.07321738804291,"Approved","OW306"
"2023-06-16 12:00",5.0742187382792,"Approved","OW306"
"2023-06-16 13:00",5.07522008851549,"Approved","OW306"
"2023-06-16 14:00",5.07622143875178,"Approved","OW306"
"2023-06-16 15:00",5.07422278898807,"Approved","OW306"
"2023-06-16 16:00",5.07322413922437,"Approved","OW306"
"2023-06-16 17:00",5.07422548946066,"Approved","OW306"
"2023-06-16 18:00",5.07222683969695,"Approved","OW306"
"2023-06-16 19:00",5.07222818993324,"Approved","OW306"
"2023-06-16 20:00",5.07522954016953,"Approved","OW306"
"2023-06-16 21:00",5.07423089040582,"Approved","OW306"
"2023-06-16 22:00",5.07223224064211,"Approved","OW306"
"2023-06-16 23:00",5.0762335908784,"Approved","OW306"
"2023-06-17 00:00",5.0782349411147,"Approved","OW306"
"2023-06-17 01:00",5.07423629135099,"Approved","OW306"
"2023-06-17 02:00",5.07523764158728,"Approved","OW306"
"2023-06-17 03:00",5.07523899182357,"Approved","OW306"
"2023-06-17 04:00",5.07524034205986,"Approved","OW306"
"2023-06-17 05:00",5.07624169229615,"Approved","OW306"
"2023-06-17 06:00",5.07724304253244,"Approved","OW306"
"2023-06-17 07:00",5.07724439276873,"Approved","OW306"
"2023-06-17 08:00",5.07624574300503,"Approved","OW306"
"2023-06-17 09:00",5.07724709324132,"Approved","OW306"
"2023-06-17 10:00",5.07724844347761,"Approved","OW306"
"2023-06-17 11:00",5.0822497937139,"Approved","OW306"
"2023-06-17 12:00",5.08525114395019,"Approved","OW306"
"2023-06-17 13:00",5.08525249418648,"Approved","OW306"
"2023-06-17 14:00",5.08425384442277,"Approved","OW306"
"2023-06-17 15:00",5.08325519465907,"Approved","OW306"
"2023-06-17 16:00",5.08125654489536,"Approved","OW306"
"2023-06-17 17:00",5.08125789513165,"Approved","OW306"
"2023-06-17 18:00",5.08025924536794,"Approved","OW306"
"2023-06-17 19:00",5.08226059560423,"Approved","OW306"
"2023-06-17 20:00",5.08226194584052,"Approved","OW306"
"2023-06-17 21:00",5.08326329607681,"Approved","OW306"
"2023-06-17 22:00",5.08326464631311,"Approved","OW306"
"2023-06-17 23:00",5.0842659965494,"Approved","OW306"
"2023-06-18 00:00",5.08526734678569,"Approved","OW306"
"2023-06-18 01:00",5.08626869702198,"Approved","OW306"
"2023-06-18 02:00",5.08527004725827,"Approved","OW306"
"2023-06-18 03:00",5.08527139749456,"Approved","OW306"
"2023-06-18 04:00",5.08827274773085,"Approved","OW306"
"2023-06-18 05:00",5.08627409796714,"Approved","OW306"
"2023-06-18 06:00",5.08727544820344,"Approved","OW306"
"2023-06-18 07:00",5.08827679843973,"Approved","OW306"
"2023-06-18 08:00",5.08827814867602,"Approved","OW306"
"2023-06-18 09:00",5.09027949891231,"Approved","OW306"
"2023-06-18 10:00",5.0902808491486,"Approved","OW306"
"2023-06-18 11:00",5.09328219938489,"Approved","OW306"
"2023-06-18 12:00",5.09428354962118,"Approved","OW306"
"2023-06-18 13:00",5.09528489985748,"Approved","OW306"
"2023-06-18 14:00",5.09528625009377,"Approved","OW306"
"2023-06-18 15:00",5.09328760033006,"Approved","OW306"
"2023-06-18 16:00",5.09328895056635,"Approved","OW306"
"2023-06-18 17:00",5.09529030080264,"Approved","OW306"
"2023-06-18 18:00",5.09529165103893,"Approved","OW306"
"2023-06-18 19:00",5.09329300127522,"Approved","OW306"
"2023-06-18 20:00",5.09429435151151,"Approved","OW306"
"2023-06-18 21:00",5.09629570174781,"Approved","OW306"
"2023-06-18 22:00",5.0942970519841,"Approved","OW306"
"2023-06-18 23:00",5.09829840222039,"Approved","OW306"
"2023-06-19 00:00",5.09729975245668,"Approved","OW306"
"2023-06-19 01:00",5.09730110269297,"Approved","OW306"
"2023-06-19 02:00",5.09730245292926,"Approved","OW306"
"2023-06-19 03:00",5.09830380316555,"Approved","OW306"
"2023-06-19 04:00",5.09930515340185,"Approved","OW306"
"2023-06-19 05:00",5.10030650363814,"Approved","OW306"
"2023-06-19 06:00",5.10030785387443,"Approved","OW306"
"2023-06-19 07:00",5.10030920411072,"Approved","OW306"
"2023-06-19 08:00",5.10831055434701,"Approved","OW306"
"2023-06-19 09:00",5.1023119045833,"Approved","OW306"
"2023-06-19 10:00",5.10331325481959,"Approved","OW306"
"2023-06-19 11:00",5.10631460505588,"Approved","OW306"
"2023-06-19 12:00",5.10731595529218,"Approved","OW306"
"2023-06-19 13:00",5.10831730552847,"Approved","OW306"
"2023-06-19 14:00",5.10931865576476,"Approved","OW306"
"2023-06-19 15:00",5.10632000600105,"Approved","OW306"
"2023-06-19 16:00",5.10432135623734,"Approved","OW306"
"2023-06-19 17:00",5.10732270647363,"Approved","OW306"
"2023-06-19 18:00",5.10632405670992,"Approved","OW306"
"2023-06-19 19:00",5.10632540694622,"Approved","OW306"
"2023-06-19 20:00",5.10632675718251,"Approved","OW306"
"2023-06-19 21:00",5.1073281074188,"Approved","OW306"
"2023-06-19 22:00",5.10732945765509,"Approved","OW306"
"2023-06-19 23:00",5.10833080789138,"Approved","OW306"
"2023-06-20 00:00",5.10833215812767,"Approved","OW306"
"2023-06-20 01:00",5.11333350836396,"Approved","OW306"
"2023-06-20 02:00",5.11033485860026,"Approved","OW306"
"2023-06-20 03:00",5.11233620883655,"Approved","OW306"
"2023-06-20 04:00",5.11233755907284,"Approved","OW306"
"2023-06-20 05:00",5.11133890930913,"Approved","OW306"
"2023-06-20 06:00",5.11234025954542,"Approved","OW306"
"2023-06-20 07:00",5.11334160978171,"Approved","OW306"
"2023-06-20 08:00",5.121342960018,"Approved","OW306"
"2023-06-20 09:00",5.11534431025429,"Approved","OW306"
"2023-06-20 10:00",5.11534566049059,"Approved","OW306"
"2023-06-20 11:00",5.12034701072688,"Approved","OW306"
"2023-06-20 12:00",5.12634836096317,"Approved","OW306"
"2023-06-20 13:00",5.12134971119946,"Approved","OW306"
"2023-06-20 14:00",5.12235106143575,"Approved","OW306"
"2023-06-20 15:00",5.11935241167204,"Approved","OW306"
"2023-06-20 16:00",5.11935376190833,"Approved","OW306"
"2023-06-20 17:00",5.12035511214463,"Approved","OW306"
"2023-06-20 18:00",5.11835646238092,"Approved","OW306"
"2023-06-20 19:00",5.12035781261721,"Approved","OW306"
"2023-06-20 20:00",5.1203591628535,"Approved","OW306"
"2023-06-20 21:00",5.12136051308979,"Approved","OW306"
"2023-06-20 22:00",5.12036186332608,"Approved","OW306"
"2023-06-20 23:00",5.12036321356237,"Approved","OW306"
"2023-06-21 00:00",5.12136456379867,"Approved","OW306"
"2023-06-21 01:00",5.12336591403496,"Approved","OW306"
"2023-06-21 02:00",5.12236726427125,"Approved","OW306"
"2023-06-21 03:00",5.12136861450754,"Approved","OW306"
"2023-06-21 04:00",5.12236996474383,"Approved","OW306"
"2023-06-21 05:00",5.12237131498012,"Approved","OW306"
"2023-06-21 06:00",5.12237266521641,"Approved","OW306"
"2023-06-21 07:00",5.1233740154527,"Approved","OW306"
"2023-06-21 08:00",5.130375365689,"Approved","OW306"
"2023-06-21 09:00",5.12337671592529,"Approved","OW306"
"2023-06-21 10:00",5.12437806616158,"Approved","OW306"
"2023-06-21 11:00",5.12837941639787,"Approved","OW306"
"2023-06-21 12:00",5.13038076663416,"Approved","OW306"
"2023-06-21 13:00",5.12938211687045,"Approved","OW306"
"2023-06-21 14:00",5.12938346710674,"Approved","OW306"
"2023-06-21 15:00",5.12638481734304,"Approved","OW306"
"2023-06-21 16:00",5.12638616757933,"Approved","OW306"
"2023-06-21 17:00",5.12638751781562,"Approved","OW306"
"2023-06-21 18:00",5.12438886805191,"Approved","OW306"
"2023-06-21 19:00",5.1243902182882,"Approved","OW306"
"2023-06-21 20:00",5.12539156852449,"Approved","OW306"
"2023-06-21 21:00",5.12439291876078,"Approved","OW306"
"2023-06-21 22:00",5.12539426899707,"Approved","OW306"
"2023-06-21 23:00",5.12739561923337,"Approved","OW306"
"2023-06-22 00:00",5.12539696946966,"Approved","OW306"
"2023-06-22 01:00",5.12539831970595,"Approved","OW306"
"2023-06-22 02:00",5.12539966994224,"Approved","OW306"
"2023-06-22 03:00",5.12540102017853,"Approved","OW306"
"2023-06-22 04:00",5.12540237041482,"Approved","OW306"
"2023-06-22 05:00",5.12640372065111,"Approved","OW306"
"2023-06-22 06:00",5.12640507088741,"Approved","OW306"
"2023-06-22 07:00",5.1264064211237,"Approved","OW306"
"2023-06-22 08:00",5.13340777135999,"Approved","OW306"
"2023-06-22 09:00",5.12840912159628,"Approved","OW306"
"2023-06-22 10:00",5.12741047183257,"Approved","OW306"
"2023-06-22 11:00",5.13141182206886,"Approved","OW306"
"2023-06-22 12:00",5.13341317230515,"Approved","OW306"
"2023-06-22 13:00",5.13341452254144,"Approved","OW306"
"2023-06-22 14:00",5.13341587277774,"Approved","OW306"
"2023-06-22 15:00",5.12941722301403,"Approved","OW306"
"2023-06-22 16:00",5.12941857325032,"Approved","OW306"
"2023-06-22 17:00",5.13041992348661,"Approved","OW306"
"2023-06-22 18:00",5.1294212737229,"Approved","OW306"
"2023-06-22 19:00",5.13042262395919,"Approved","OW306"
"2023-06-22 20:00",5.12942397419548,"Approved","OW306"
"2023-06-22 21:00",5.13042532443178,"Approved","OW306"
"2023-06-22 22:00",5.13042667466807,"Approved","OW306"
"2023-06-22 23:00",5.12842802490436,"Approved","OW306"
"2023-06-23 00:00",5.12842937514065,"Approved","OW306"
"2023-06-23 01:00",5.12843072537694,"Approved","OW306"
"2023-06-23 02:00",5.12743207561323,"Approved","OW306"
"2023-06-23 03:00",5.12843342584952,"Approved","OW306"
"2023-06-23 04:00",5.12843477608582,"Approved","OW306"
"2023-06-23 05:00",5.12943612632211,"Approved","OW306"
"2023-06-23 06:00",5.1294374765584,"Approved","OW306"
"2023-06-23 07:00",5.12943882679469,"Approved","OW306"
"2023-06-23 08:00",5.13644017703098,"Approved","OW306"
"2023-06-23 09:00",5.13044152726727,"Approved","OW306"
"2023-06-23 10:00",5.12944287750356,"Approved","OW306"
"2023-06-23 11:00",5.13444422773985,"Approved","OW306"
"2023-06-23 12:00",5.13644557797615,"Approved","OW306"
"2023-06-23 13:00",5.13544692821244,"Approved","OW306"
"2023-06-23 14:00",5.13644827844873,"Approved","OW306"
"2023-06-23 15:00",5.13544962868502,"Approved","OW306"
"2023-06-23 16:00",5.13345097892131,"Approved","OW306"
"2023-06-23 17:00",5.1344523291576,"Approved","OW306"
"2023-06-23 18:00",5.13445367939389,"Approved","OW306"
"2023-06-23 19:00",5.13545502963018,"Approved","OW306"
"2023-06-23 20:00",5.13345637986648,"Approved","OW306"
"2023-06-23 21:00",5.13345773010277,"Approved","OW306"
"2023-06-23 22:00",5.13245908033906,"Approved","OW306"
"2023-06-23 23:00",5.13346043057535,"Approved","OW306"
"2023-06-24 00:00",5.13346178081164,"Approved","OW306"
"2023-06-24 01:00",5.13246313104793,"Approved","OW306"
"2023-06-24 02:00",5.13246448128422,"Approved","OW306"
"2023-06-24 03:00",5.13446583152052,"Approved","OW306"
"2023-06-24 04:00",5.13346718175681,"Approved","OW306"
"2023-06-24 05:00",5.1334685319931,"Approved","OW306"
"2023-06-24 06:00",5.13346988222939,"Approved","OW306"
"2023-06-24 07:00",5.13547123246568,"Approved","OW306"
"2023-06-24 08:00",5.13547258270197,"Approved","OW306"
"2023-06-24 09:00",5.13447393293826,"Approved","OW306"
"2023-06-24 10:00",5.13547528317456,"Approved","OW306"
"2023-06-24 11:00",5.13947663341085,"Approved","OW306"
"2023-06-24 12:00",5.14147798364714,"Approved","OW306"
"2023-06-24 13:00",5.14147933388343,"Approved","OW306"
"2023-06-24 14:00",5.14348068411972,"Approved","OW306"
"2023-06-24 15:00",5.13848203435601,"Approved","OW306"
"2023-06-24 16:00",5.1394833845923,"Approved","OW306"
"2023-06-24 17:00",5.13748473482859,"Approved","OW306"
"2023-06-24 18:00",5.13848608506489,"Approved","OW306"
"2023-06-24 19:00",5.13848743530118,"Approved","OW306"
"2023-06-24 20:00",5.13848878553747,"Approved","OW306"
"2023-06-24 21:00",5.13849013577376,"Approved","OW306"
"2023-06-24 22:00",5.13949148601005,"Approved","OW306"
"2023-06-24 23:00",5.14149283624634,"Approved","OW306"
"2023-06-25 00:00",5.13949418648263,"Approved","OW306"
"2023-06-25 01:00",5.14049553671893,"Approved","OW306"
"2023-06-25 02:00",5.13949688695522,"Approved","OW306"
"2023-06-25 03:00",5.13949823719151,"Approved","OW306"
"2023-06-25 04:00",5.1404995874278,"Approved","OW306"
"2023-06-25 05:00",5.14050093766409,"Approved","OW306"
"2023-06-25 06:00",5.14050228790038,"Approved","OW306"
"2023-06-25 07:00",5.14050363813667,"Approved","OW306"
"2023-06-25 08:00",5.14150498837297,"Approved","OW306"
"2023-06-25 09:00",5.14150633860926,"Approved","OW306"
"2023-06-25 10:00",5.14150768884555,"Approved","OW306"
"2023-06-25 11:00",5.14550903908184,"Approved","OW306"
"2023-06-25 12:00",5.14551038931813,"Approved","OW306"
"2023-06-25 13:00",5.14651173955442,"Approved","OW306"
"2023-06-25 14:00",5.14551308979071,"Approved","OW306"
"2023-06-25 15:00",5.14251444002701,"Approved","OW306"
"2023-06-25 16:00",5.1435157902633,"Approved","OW306"
"2023-06-25 17:00",5.14051714049959,"Approved","OW306"
"2023-06-25 18:00",5.14051849073588,"Approved","OW306"
"2023-06-25 19:00",5.14451984097217,"Approved","OW306"
"2023-06-25 20:00",5.14352119120846,"Approved","OW306"
"2023-06-25 21:00",5.14152254144475,"Approved","OW306"
"2023-06-25 22:00",5.14252389168104,"Approved","OW306"
"2023-06-25 23:00",5.14252524191734,"Approved","OW306"
"2023-06-26 00:00",5.14052659215363,"Approved","OW306"
"2023-06-26 01:00",5.14152794238992,"Approved","OW306"
"2023-06-26 02:00",5.14152929262621,"Approved","OW306"
"2023-06-26 03:00",5.1425306428625,"Approved","OW306"
"2023-06-26 04:00",5.14453199309879,"Approved","OW306"
"2023-06-26 05:00",5.14353334333508,"Approved","OW306"
"2023-06-26 06:00",5.14453469357137,"Approved","OW306"
"2023-06-26 07:00",5.14453604380767,"Approved","OW306"
"2023-06-26 08:00",5.14953739404396,"Approved","OW306"
"2023-06-26 09:00",5.14353874428025,"Approved","OW306"
"2023-06-26 10:00",5.14354009451654,"Approved","OW306"
"2023-06-26 11:00",5.14754144475283,"Approved","OW306"
"2023-06-26 12:00",5.14954279498912,"Approved","OW306"
"2023-06-26 13:00",5.14954414522541,"Approved","OW306"
"2023-06-26 14:00",5.14954549546171,"Approved","OW306"
"2023-06-26 15:00",5.145546845698,"Approved","OW306"
"2023-06-26 16:00",5.14554819593429,"Approved","OW306"
"2023-06-26 17:00",5.14554954617058,"Approved","OW306"
"2023-06-26 18:00",5.14455089640687,"Approved","OW306"
"2023-06-26 19:00",5.14755224664316,"Approved","OW306"
"2023-06-26 20:00",5.14455359687945,"Approved","OW306"
"2023-06-26 21:00",5.14655494711575,"Approved","OW306"